Simultaneous Nadir Overpasses (SNOs) Predictions

Prediction of SNOs between METOP-C and LANDSAT-8 Satellite Orbit:

Table of predicted SNOs for the next 14.0 days since TLE Epoch: 8/3/2024
Index Date (METOP-C) Time (METOP-C) Lat,Lon (METOP-C) SZA (METOP-C ) Date (LANDSAT-8) Time (LANDSAT-8) Lat,Lon (LANDSAT-8) SZA (LANDSAT-8 ) Distance(km) Time Diff (sec)
1 08/03/2024 17:48:43 81.09, -47.67 65.81 08/03/2024 17:49:03 81.09, -47.79 65.80 2.25 20
2 08/03/2024 18:39:22 -81.13, 120.56 114.07 08/03/2024 18:38:28 -81.13, 120.44 114.11 2.06 54
3 08/06/2024 13:23:07 81.09, 18.54 66.56 08/06/2024 13:23:15 81.09, 18.66 66.57 1.99 8
4 08/06/2024 14:13:46 -81.12,-173.24 113.33 08/06/2024 14:12:40 -81.13,-173.09 113.33 2.80 66
5 08/09/2024 08:06:51 -81.09, -82.42 112.65 08/09/2024 08:08:01 -81.09, -82.55 112.64 2.25 70
6 08/09/2024 08:57:31 81.09, 85.02 67.37 08/09/2024 08:57:27 81.09, 85.17 67.39 2.71 4
7 08/12/2024 03:41:16 -81.07, -16.44 111.87 08/12/2024 03:42:13 -81.07, -16.29 111.83 2.48 57
8 08/12/2024 04:31:54 81.10, 151.76 68.26 08/12/2024 04:31:38 81.10, 151.76 68.25 0.22 16
9 08/14/2024 23:15:37 -81.09, 50.55 110.92 08/14/2024 23:16:22 -81.09, 50.39 110.92 2.84 45



Historial Predications of SNOs between METOP-C and LANDSAT-8
